Regional Weather Roundup
Issued by NWS Sioux Falls, SD

Home | Current Version | Previous Version | Graphics & Text | Print | Product List | Glossary Off
Versions: 1 2 3 4 5 6 7 8 9 10 11 12 13 14 15 16 17 18 19 20 21 22 23 24 25 26 27 28 29 30 31 32 33 34 35 36 37 38 39 40 41 42 43 44 45 46 47 48 49 50

000
ASUS43 KFSD 302302
RWRFSD

WEATHER ROUNDUP FOR SE SOUTH DAKOTA/SW MINNESOTA/NW IOWA
NATIONAL WEATHER SERVICE SIOUX FALLS SD
600 PM CDT MON MAY 30 2016

NOTE: "FAIR" INDICATES FEW OR NO CLOUDS BELOW 12,000 FEET WITH NO
SIGNIFICANT WEATHER AND OR OBSTRUCTIONS TO VISIBILITY.


SDZ038>040-050-052>070-310000-
SOUTHEAST SOUTH DAKOTA

CITY           SKY/WX    TMP DP  RH WIND       PRES   REMARKS
BROOKINGS      SUNNY     80  60  50 S13G20    29.80F
CHAMBERLAIN    NOT AVBL
HURON          MOSUNNY   80  59  48 S16       29.74F
MADISON        FAIR      79  57  47 S16G23    29.80F
MITCHELL       MOSUNNY   80  61  52 S15G22    29.76F
SIOUX FALLS    MOSUNNY   81  55  40 S13       29.80F
WINNER         FAIR      77  55  46 S13       29.74F
YANKTON        SUNNY     84  54  34 S15G22    29.76F
$$

MNZ071-072-080-081-089-090-097-098-310000-
SOUTHWEST MINNESOTA

CITY           SKY/WX    TMP DP  RH WIND       PRES   REMARKS
FAIRMONT       CLOUDY    81  57  44 SE13      29.86F
JACKSON        CLOUDY    84  46  26 SW7       29.86F
LUVERNE        PTSUNNY   82  46  28 S17G23    29.82F
MARSHALL       SUNNY     84  56  38 S10       29.81F
MONTEVIDEO     PTSUNNY   82  54  36 S9        29.83F
PIPESTONE      MOSUNNY   81  54  39 S15       29.83F
REDWOOD FALLS  MOSUNNY   84  55  36 SE16      29.83F
TRACY          SUNNY     85  55  35 S12       29.83F
WINDOM         PTSUNNY   82  54  36 CALM      29.85F
WORTHINGTON    MOSUNNY   82  56  40 S12       29.85F
$$

IAZ001>003-012>014-020>022-031-032-NEZ013-014-SDZ071-310000-
NORTHWEST IOWA

CITY           SKY/WX    TMP DP  RH WIND       PRES   REMARKS
ESTHERVILLE    PTSUNNY   82  58  43 S7        29.85F
SIOUX CITY     SUNNY     87  58  37 S16       29.80F
SPENCER        MOSUNNY   82  55  39 S10       29.84F
STORM LAKE     SUNNY     84  48  28 SW17      29.86F
$$

ABBREVIATIONS USED IN REMARKS
   TC - TEMPERATURE IN CELSIUS
  WCI - WIND CHILL INDEX
   HX - HEAT INDEX
  VSB - VISIBILITY





USA.gov is the U.S. government's official web portal to all federal, state and local government web resources and services.